Theta_e
313 314 314 315 314 314 315 315 315 314 313 313 312 313 312 312 312 312 313 314 314 314 314 315 315 317 318 318 319 318 318 320 320 320 320 319 319 319 319 319 318 318 318 317 318 318 319 318 318 318 317 319
310 311 312 312 312 312 311 311 312 312 311 310 310 309 309 308 309 309 310 310 311 311 311 311 312 313 315 315 317 317 317 317 318 317 318 317 318 318 317 317 317 316 316 317 317 316 317 316 316 316 315 318
306 307 309 309 309 309 309 308 308 308 308 308 307 307 306 306 306 306 307 307 307 308 307 307 308 310 312 313 314 314 315 315 316 316 316 316 316 316 316 316 316 316 316 315 315 315 314 314 314 312 314 322
304 303 304 305 306 306 306 306 306 306 304 304 305 304 304 305 308 309 306 306 306 305 306 304 305 307 309 311 311 311 313 312 313 313 314 314 315 315 315 315 314 315 314 313 313 313 313 313 312 313 314 322
305 304 303 303 302 302 303 304 303 304 304 308 307 307 306 306 306 307 305 304 304 308 305 304 304 306 308 309 309 309 311 311 312 312 313 313 313 313 314 312 313 315 312 312 312 313 313 311 311 314 315 317
305 304 305 306 306 305 304 303 306 305 305 308 307 307 305 304 304 305 303 303 304 305 304 306 304 305 307 308 307 307 309 309 310 310 311 311 312 312 312 311 310 310 313 313 314 313 311 313 312 311 312 312
305 305 305 304 303 303 305 305 304 305 304 306 306 305 304 303 304 305 303 302 303 304 306 305 305 305 305 305 306 306 308 307 308 309 309 309 309 310 309 308 309 307 309 308 308 308 310 308 309 310 310 311
303 304 304 304 305 304 304 304 304 304 305 304 305 305 303 302 304 304 303 306 304 307 303 305 307 307 306 304 305 304 305 305 306 307 307 307 307 307 308 306 306 305 306 306 307 307 306 307 307 308 309 309
303 304 303 304 304 305 304 304 304 304 304 304 305 304 303 303 303 304 303 303 303 303 303 303 302 302 302 302 303 304 302 302 303 303 304 304 304 304 304 304 305 305 305 305 306 306 306 306 308 308 308 308
303 303 303 303 303 303 304 304 303 304 304 303 303 303 303 303 303 303 302 303 302 302 301 301 300 301 301 301 301 301 300 301 301 300 301 301 302 302 304 305 305 305 305 305 305 305 306 306 307 307 307 307
300 302 304 303 303 304 303 303 303 302 302 302 302 303 302 302 301 301 301 301 301 301 301 300 300 300 300 300 300 299 299 300 300 299 299 299 300 300 301 302 303 304 305 304 304 305 305 306 306 306 306 307
301 302 303 303 300 303 302 302 302 302 302 302 301 301 301 301 301 300 300 300 299 300 300 300 300 300 299 299 299 299 299 298 298 298 298 299 299 299 300 300 301 301 302 303 304 304 304 304 305 305 305 305
301 301 302 301 301 302 301 302 302 302 302 302 300 301 301 300 300 299 299 299 299 299 299 299 299 298 298 299 298 298 297 298 297 297 297 298 298 298 298 299 299 300 300 301 302 302 303 304 304 304 305 305
301 301 301 301 302 301 299 301 301 301 301 300 300 299 300 299 299 299 298 298 298 298 298 298 299 298 298 297 298 297 297 296 296 296 297 297 298 298 298 298 298 299 299 300 301 301 302 302 303 303 303 304
300 300 300 301 301 301 301 301 300 301 300 300 299 299 299 299 299 299 299 298 297 297 297 298 297 297 297 296 296 296 296 296 296 296 297 297 297 297 297 297 298 298 298 299 299 300 300 301 302 302 303 303
300 299 300 300 300 300 301 300 300 300 300 299 299 299 299 299 298 298 298 298 298 297 297 296 296 297 296 296 296 296 295 295 296 296 297 297 298 297 297 297 297 298 298 298 298 299 300 300 300 300 301 302
299 299 299 299 300 300 300 300 300 299 299 299 299 299 299 298 297 298 297 297 297 297 296 296 296 296 296 296 296 295 295 296 296 296 296 296 297 296 296 296 297 298 297 296 297 297 298 298 299 300 300 301
298 299 299 299 299 299 299 299 299 299 299 298 298 298 298 298 297 297 297 296 296 296 296 296 296 295 295 296 295 295 295 294 294 294 295 295 295 296 295 295 296 295 295 296 296 296 297 297 297 298 298 299
298 298 298 298 298 298 299 298 298 298 298 297 298 297 297 297 296 296 296 296 295 295 295 295 294 295 294 295 295 293 294 294 294 294 294 294 294 294 294 294 295 295 294 295 295 296 296 296 296 297 296 298
298 297 298 298 298 298 299 298 298 297 298 298 297 296 297 296 296 295 295 295 295 294 294 294 294 294 294 294 294 294 293 294 293 293 294 294 294 292 293 293 293 294 294 294 294 295 295 296 296 296 296 297
297 297 297 297 296 298 297 297 297 297 297 297 296 296 296 296 295 295 295 294 294 293 294 294 294 294 294 294 293 293 293 292 293 293 293 293 294 293 292 292 292 293 293 292 293 294 294 295 295 296 296 297
296 296 297 296 296 296 296 297 297 296 296 296 295 295 295 295 294 294 294 294 294 293 293 293 293 293 293 293 293 292 292 292 292 293 293 292 293 292 292 291 291 290 291 292 292 293 293 294 295 296 296 297
296 296 296 296 296 295 296 296 295 295 295 295 295 295 295 294 294 293 294 293 293 292 292 292 292 292 293 293 292 291 291 291 292 292 293 292 291 292 292 291 291 291 291 292 292 292 292 293 294 295 296 297
295 294 294 294 294 294 294 294 294 294 294 295 294 294 294 294 294 294 293 293 292 292 292 292 292 292 292 292 292 291 290 290 291 291 291 290 290 290 290 291 291 292 291 290 290 290 292 294 295 295 296 296
294 293 293 294 293 293 293 293 294 294 294 294 294 294 294 294 293 293 293 292 292 291 291 291 291 291 291 292 291 290 290 291 291 291 290 290 290 289 289 289 291 291 291 289 289 291 291 291 292 293 294 294
294 294 294 294 293 293 294 293 292 292 293 293 294 293 293 293 293 293 292 292 292 291 291 290 290 290 290 291 291 290 290 290 290 290 290 290 289 290 288 288 290 290 290 288 286 285 286 288 292 293 293 293
294 295 296 295 294 294 293 294 294 294 294 293 293 293 293 293 293 292 292 292 291 291 290 290 290 290 290 290 290 289 289 289 289 290 290 290 288 287 289 288 290 290 291 286 287 287 286 285 284 289 291 296
295 296 295 295 294 294 294 292 292 292 292 292 292 292 292 292 292 292 291 291 291 290 290 290 289 289 289 289 290 289 288 288 288 289 289 289 289 288 285 287 287 290 290 288 286 282 284 283 284 282 287 287
295 294 293 292 292 292 291 290 290 291 290 291 292 291 292 292 292 292 291 291 290 290 289 290 289 289 289 289 289 289 288 288 288 288 289 289 288 287 286 285 286 288 289 288 289 286 283 282 282 282 283 285
294 292 291 290 289 288 288 288 289 288 289 290 290 290 292 292 292 291 290 290 290 289 289 289 289 289 288 288 288 289 288 288 288 288 288 288 288 287 287 286 285 285 288 288 289 289 288 286 282 281 284 284
293 292 291 290 290 290 290 289 291 292 292 292 292 292 291 290 291 291 290 290 290 289 289 289 288 288 288 288 288 288 287 287 287 287 288 288 288 287 287 286 284 284 285 287 287 288 289 288 288 287 284 281
Wind_Speed
10 10 11 11 11 11 10 10 10 11 11 11 12 12 12 13 13 13 13 14 14 15 15 14 15 15 14 14 13 13 13 13 12 12 12 12 11 11 12 12 13 13 12 10 11 11 10 10 9 9 8 6
10 10 10 11 11 10 10 10 10 10 10 10 10 10 10 10 10 11 11 11 12 13 14 14 14 15 15 15 15 15 15 14 13 13 12 12 11 11 11 11 12 12 11 10 10 11 11 12 12 10 11 7
6 9 10 10 10 9 9 9 9 9 9 9 9 8 7 6 7 8 9 8 9 9 11 12 11 13 13 13 14 14 14 14 14 15 14 14 13 13 12 12 12 12 10 8 9 10 10 12 11 14 10 8
6 7 9 9 9 8 8 8 7 7 7 7 6 5 2 1 4 5 7 6 6 8 8 11 9 10 11 11 12 13 12 12 12 13 14 13 14 14 14 15 14 12 8 8 9 9 10 11 13 8 6 6
5 3 5 7 7 7 7 7 6 4 3 2 4 4 2 3 5 5 5 6 6 6 6 7 9 10 10 11 11 12 12 10 11 12 12 12 13 13 13 13 15 11 7 10 9 9 8 11 7 5 5 6
3 3 2 3 3 3 3 4 2 3 4 4 4 3 3 4 5 4 5 6 7 5 6 6 7 9 11 11 11 13 12 10 10 12 11 11 12 13 11 13 6 6 6 8 7 8 11 7 4 5 6 6
3 3 3 4 3 3 2 2 3 2 3 4 4 4 4 4 4 4 4 5 4 4 6 3 3 7 8 9 9 13 12 10 10 13 11 11 12 12 9 6 5 6 5 6 9 8 6 5 5 6 7 6
4 4 4 3 3 3 2 2 1 2 3 3 4 3 4 4 4 3 4 2 1 4 4 5 5 5 6 9 8 11 8 9 9 12 10 10 11 8 6 6 6 6 6 6 6 6 6 5 6 6 6 6
4 4 4 3 3 2 2 2 2 2 2 3 3 3 3 3 3 3 4 5 5 5 5 5 6 6 6 6 6 9 7 6 7 7 6 6 7 6 6 7 6 6 6 6 7 7 7 7 7 6 6 6
4 4 4 4 3 3 2 2 1 1 1 2 2 2 2 1 2 3 3 4 5 5 5 5 5 5 6 6 6 7 6 7 7 7 6 7 7 6 6 6 6 7 6 6 6 6 7 7 7 7 6 6
5 5 4 4 4 3 3 3 2 2 2 2 2 1 2 2 3 3 3 4 4 4 4 4 5 5 5 6 6 6 6 7 7 7 7 7 7 7 7 7 7 7 7 7 8 7 7 7 7 7 7 7
5 5 4 3 4 3 3 2 2 3 2 2 2 2 3 2 2 2 3 3 3 3 3 4 4 4 4 5 5 6 6 6 6 7 6 7 7 8 7 8 8 7 8 7 7 7 8 8 8 7 7 8
5 5 4 4 4 3 4 2 3 3 3 2 2 3 2 3 2 2 2 3 3 3 4 4 4 4 4 5 5 5 6 6 6 6 6 6 7 7 7 7 7 8 8 7 7 7 8 8 8 8 8 8
5 5 5 4 4 4 4 3 3 3 2 2 2 2 3 3 2 2 3 3 3 3 4 4 4 4 4 4 4 5 5 6 6 6 6 6 6 6 7 7 7 7 7 8 8 8 8 8 8 8 8 8
6 6 5 4 4 4 3 4 4 3 3 2 2 3 2 3 2 2 3 3 3 3 3 3 4 4 4 4 4 5 5 5 6 6 6 6 6 6 6 6 6 7 7 7 7 7 8 8 8 8 8 8
6 6 5 5 4 4 3 4 3 3 2 2 3 2 2 2 2 2 2 2 2 3 3 3 4 4 4 4 4 5 5 6 6 6 6 7 6 7 6 6 6 6 7 7 7 8 9 8 8 8 8 9
6 6 5 5 4 4 3 3 3 3 3 2 3 2 2 2 2 1 2 2 3 3 2 3 3 3 4 3 4 5 6 7 7 6 6 6 6 6 6 7 7 6 7 8 8 8 8 8 9 9 9 9
7 6 6 5 4 4 5 4 3 3 3 3 3 3 2 2 2 2 2 3 3 3 3 3 3 3 4 3 4 5 5 5 6 7 7 7 6 6 6 6 7 7 7 7 7 8 8 8 9 8 9 10
7 7 6 6 5 5 5 4 4 4 3 3 3 3 3 2 2 2 3 3 2 2 2 3 3 3 3 3 5 5 5 6 6 6 6 6 7 7 7 7 7 7 8 8 9 8 8 9 9 9 10 10
7 7 6 6 6 5 5 5 4 4 4 3 3 2 2 3 2 2 3 2 1 1 2 3 3 3 4 4 4 5 5 6 6 6 6 6 7 7 8 8 8 7 8 9 9 9 9 9 9 10 10 10
8 7 7 6 6 5 6 4 4 4 4 3 3 2 2 3 2 2 2 1 0 1 2 2 3 4 4 4 5 5 6 6 6 6 6 7 6 7 8 8 10 9 8 9 9 10 10 10 10 10 10 10
8 7 7 6 6 6 6 5 4 4 4 3 3 3 2 3 1 2 2 1 0 2 2 3 3 4 4 4 5 6 6 6 6 6 7 7 7 7 7 8 9 10 9 9 9 10 11 11 10 10 11 11
8 8 7 6 6 6 5 4 4 3 4 3 3 3 3 3 2 3 2 1 1 2 2 3 4 4 4 4 5 6 6 6 7 7 6 7 8 7 7 8 9 9 9 9 10 10 12 12 12 11 11 11
8 7 7 7 6 6 5 5 5 4 4 4 4 4 4 4 3 2 1 1 1 2 3 3 3 4 4 5 5 6 6 6 6 7 8 9 8 9 8 8 8 8 9 10 12 13 12 10 11 13 12 12
9 9 8 7 8 7 7 6 6 5 5 5 4 5 4 4 3 3 2 1 2 2 2 3 4 4 5 5 5 5 6 7 8 8 8 8 7 8 9 8 7 7 8 10 11 8 10 11 13 14 13 14
9 9 8 8 8 7 7 7 6 6 6 5 4 4 5 4 3 3 2 2 2 2 3 3 4 5 5 5 5 5 6 8 9 9 8 7 7 7 8 8 7 7 7 7 8 13 13 8 7 7 9 12
9 8 7 7 7 7 6 4 4 4 5 4 4 5 5 4 4 3 3 3 3 2 3 4 5 5 5 5 5 5 6 7 8 8 8 8 8 8 7 8 7 6 4 7 8 10 11 11 14 4 5 3
9 7 7 5 6 4 4 5 4 3 3 4 4 5 5 4 4 4 3 3 3 3 4 4 5 5 5 5 5 5 6 7 8 8 8 8 8 8 9 6 6 5 5 5 7 8 5 11 8 13 3 9
9 9 8 6 6 4 3 2 4 4 5 5 5 4 5 4 5 4 3 3 3 3 4 5 5 5 5 5 5 5 6 7 8 8 8 8 8 8 8 9 6 6 5 6 5 5 8 7 6 7 11 14
9 8 8 8 7 7 6 6 6 7 7 6 6 5 4 4 3 3 2 3 3 4 4 5 5 6 6 6 5 5 6 7 8 9 9 8 7 9 9 8 8 7 5 5 6 7 8 7 8 13 13 9
9 9 8 10 9 7 8 7 6 5 4 4 4 3 3 2 2 3 3 3 4 4 5 5 6 6 6 6 6 6 6 7 9 8 8 7 7 8 7 7 8 8 7 6 6 7 9 10 10 11 10 10
Wind_Direction
66 69 71 71 70 68 67 68 67 67 67 66 66 62 61 57 53 50 47 44 41 38 34 32 29 25 24 24 23 22 20 18 16 13 11 6 1 357 352 345 342 339 336 335 337 339 335 335 326 318 308 292
55 65 68 69 66 64 64 65 65 64 66 68 69 67 68 68 67 59 53 49 44 40 35 28 25 20 20 18 15 13 11 10 10 8 5 2 357 353 346 339 332 330 327 327 332 331 331 326 320 306 300 278
73 59 68 69 68 66 68 70 67 66 63 64 65 66 69 86 88 82 65 60 56 49 45 32 24 18 18 16 13 9 5 3 2 1 358 356 353 350 344 337 331 323 318 317 319 321 320 315 305 300 286 270
100 76 71 68 67 66 64 60 65 63 65 62 50 62 69 39 116 96 85 59 54 48 46 43 24 15 16 15 12 6 360 359 357 355 353 350 348 345 343 337 329 318 308 312 312 307 309 300 295 283 266 291
99 94 133 101 88 79 59 50 48 41 55 87 62 22 23 202 45 56 43 42 22 26 26 49 18 8 7 9 6 1 357 354 351 350 346 344 343 340 336 329 316 299 323 325 313 298 285 287 286 281 317 308
132 136 131 99 104 75 77 48 33 49 26 27 23 350 28 40 41 32 45 32 19 8 11 26 14 0 2 3 4 358 353 351 351 349 343 341 338 333 325 310 311 336 336 316 318 306 292 276 306 333 327 318
147 159 136 129 116 126 109 84 39 36 36 24 17 13 24 44 38 20 48 33 358 330 292 41 2 2 356 2 3 358 347 351 357 347 344 344 339 327 326 329 340 336 333 326 328 321 318 334 332 328 314 301
164 164 163 164 165 153 153 134 113 78 31 32 19 7 28 39 31 11 36 92 204 299 8 19 9 5 352 7 5 358 343 352 357 343 348 347 343 337 352 342 338 336 334 331 329 328 328 329 329 320 313 306
170 169 173 163 172 159 153 161 143 108 76 49 16 10 40 37 33 26 37 24 15 13 12 11 7 4 5 4 358 357 355 355 349 346 346 346 346 345 344 341 335 333 328 329 326 326 326 324 320 317 311 308
146 173 177 170 166 163 157 150 138 125 105 92 33 33 1 64 56 36 46 29 23 14 14 14 7 0 3 357 357 358 354 357 349 346 349 346 345 341 335 330 327 325 320 319 322 315 319 315 313 314 312 305
165 188 176 170 163 174 159 158 155 118 120 76 53 349 44 33 46 52 41 33 27 20 15 12 4 358 358 359 356 357 351 353 347 345 344 347 342 340 335 332 329 320 322 319 318 313 309 310 309 306 305 303
177 178 171 156 132 202 105 153 138 127 90 127 110 49 35 21 62 51 55 33 30 20 20 9 2 355 358 358 355 353 347 350 346 341 342 338 338 336 334 332 328 327 324 321 315 315 313 311 306 302 301 301
178 168 172 161 172 161 148 175 143 117 148 155 114 87 57 34 59 57 57 44 28 13 21 2 6 354 4 350 355 351 346 350 343 337 336 334 335 332 328 326 326 327 320 317 318 313 309 305 304 301 297 296
177 169 169 171 175 138 173 148 124 153 155 139 140 103 72 57 50 57 43 44 14 16 12 359 1 357 358 348 353 352 343 345 337 330 323 324 322 322 322 320 316 316 313 312 310 308 306 303 301 298 296 295
178 171 171 170 161 163 171 144 155 163 146 137 110 93 74 78 52 55 62 37 23 10 4 359 358 351 350 344 348 347 336 336 327 317 310 314 312 312 311 306 309 309 308 307 304 304 303 301 298 297 296 293
172 172 166 162 170 166 155 159 167 151 149 142 113 93 86 64 59 55 84 66 40 9 357 357 353 340 346 336 338 340 333 324 314 303 297 297 301 298 294 301 301 302 302 303 303 305 302 304 302 298 298 294
172 168 160 169 175 156 156 175 166 160 148 135 114 114 101 76 74 77 56 53 41 10 352 353 339 335 328 321 337 329 320 313 305 303 303 305 304 299 305 299 301 303 301 304 304 304 304 306 302 300 300 297
170 167 169 170 171 156 177 174 165 153 154 140 140 143 140 135 92 58 66 40 33 12 347 335 318 319 313 318 336 322 314 314 314 305 304 309 311 311 307 309 310 310 304 303 304 304 305 302 301 302 296 294
170 165 167 170 170 168 188 166 168 163 153 158 166 166 151 138 106 82 61 45 25 355 331 313 308 305 304 334 329 317 316 312 305 299 306 317 315 312 311 312 311 309 306 304 304 301 302 299 301 298 294 291
162 163 166 174 171 163 179 168 170 162 160 164 169 171 144 130 125 74 70 59 32 308 316 300 297 299 320 330 320 318 311 301 300 307 311 309 309 313 313 314 311 310 305 305 305 303 298 296 295 294 290 288
166 169 172 169 173 163 171 172 167 161 157 168 178 169 156 132 122 115 99 79 288 268 279 290 296 304 320 328 320 309 305 298 299 310 309 304 307 308 308 311 308 309 308 307 303 301 294 290 288 284 282 280
168 168 166 169 166 169 170 170 161 157 162 181 178 160 161 126 152 138 132 175 261 288 296 293 291 302 313 311 305 300 297 297 301 295 294 298 305 309 307 305 308 306 303 301 298 292 291 287 283 278 275 273
167 165 169 168 162 165 167 166 167 158 176 182 172 176 130 147 180 157 173 191 254 288 307 302 306 303 305 300 290 289 293 297 298 291 290 298 300 297 293 294 293 291 294 294 292 288 284 281 273 270 267 269
169 169 173 169 168 167 180 173 165 178 189 177 180 155 163 161 189 168 175 202 300 292 289 300 304 304 296 284 276 280 288 294 295 301 303 296 297 296 289 282 281 289 297 296 290 283 276 271 275 270 267 267
174 177 178 177 182 179 174 176 170 175 184 177 179 155 172 172 187 174 184 222 246 270 283 283 282 280 273 265 269 275 279 285 290 292 290 290 287 288 288 285 288 294 301 299 293 287 288 285 271 262 262 260
183 185 185 178 179 177 165 166 173 181 178 178 156 161 178 185 179 184 195 215 241 259 267 273 278 274 273 273 272 277 282 282 281 281 278 279 285 276 283 287 292 293 300 297 317 322 316 287 267 273 269 262
184 181 180 183 173 173 153 157 161 152 140 149 163 175 180 186 182 188 200 209 218 242 255 261 265 265 272 276 276 280 279 280 282 281 279 277 276 290 282 282 278 273 276 300 311 297 288 317 328 310 267 236
175 161 127 101 120 107 129 156 141 151 164 177 181 193 189 193 190 191 201 200 216 229 235 245 257 270 272 275 273 274 280 280 279 279 275 271 273 280 286 282 289 285 286 285 317 322 333 305 301 309 327 338
154 131 128 118 106 115 109 113 168 184 194 189 188 191 189 193 183 187 193 205 221 235 245 250 253 260 271 274 274 275 275 274 273 273 273 276 273 267 276 288 287 286 274 268 253 270 312 318 300 284 309 335
151 155 160 161 165 175 187 188 186 195 192 182 185 194 181 169 166 178 202 214 224 233 244 247 247 250 260 267 269 265 268 274 276 272 268 265 267 272 269 277 289 287 277 264 257 246 239 240 271 307 311 323
161 165 176 180 185 189 188 192 189 185 168 164 163 160 164 175 181 193 206 215 219 231 234 242 248 251 254 260 265 268 270 269 270 270 269 269 262 266 277 277 280 286 296 291 262 249 246 249 260 267 289 295